Year,Month,Day,Hour,Minute,Value (Times are PST for windspeed in km/hr)
2016,10,13,00,00,6.00
2016,10,13,00,01,5.40
2016,10,13,00,02,3.00
2016,10,13,00,03,4.30
2016,10,13,00,04,2.10
2016,10,13,00,05,1.40
2016,10,13,00,06,2.70
2016,10,13,00,07,1.40
2016,10,13,00,08,2.70
2016,10,13,00,09,3.30
2016,10,13,00,10,3.90
2016,10,13,00,11,3.30
2016,10,13,00,12,2.90
2016,10,13,00,13,2.30
2016,10,13,00,14,1.80
2016,10,13,00,15,3.00
2016,10,13,00,16,1.90
2016,10,13,00,17,2.40
2016,10,13,00,18,3.50
2016,10,13,00,19,3.40
2016,10,13,00,20,1.40
2016,10,13,00,21,2.30
2016,10,13,00,22,2.90
2016,10,13,00,23,1.60
2016,10,13,00,24,1.30
2016,10,13,00,25,1.40
2016,10,13,00,26,3.80
2016,10,13,00,27,2.30
2016,10,13,00,28,4.60
2016,10,13,00,29,4.60
2016,10,13,00,30,3.10
2016,10,13,00,31,3.60
2016,10,13,00,32,2.10
2016,10,13,00,33,5.40
2016,10,13,00,34,5.30
2016,10,13,00,35,4.40
2016,10,13,00,36,3.50
2016,10,13,00,37,3.10
2016,10,13,00,38,2.30
2016,10,13,00,39,1.80
2016,10,13,00,40,3.80
2016,10,13,00,41,2.50
2016,10,13,00,42,2.80
2016,10,13,00,43,1.00
2016,10,13,00,44,5.10
2016,10,13,00,45,3.00
2016,10,13,00,46,4.40
2016,10,13,00,47,2.00
2016,10,13,00,48,2.30
2016,10,13,00,49,3.60
2016,10,13,00,50,3.90
2016,10,13,00,51,3.50
2016,10,13,00,52,1.70
2016,10,13,00,53,1.70
2016,10,13,00,54,4.60
2016,10,13,00,55,5.20
2016,10,13,00,56,6.20
2016,10,13,00,57,7.30
2016,10,13,00,58,5.10
2016,10,13,00,59,5.00
2016,10,13,01,00,5.30
2016,10,13,01,01,4.50
2016,10,13,01,02,5.60
2016,10,13,01,03,5.00
2016,10,13,01,04,4.20
2016,10,13,01,05,4.30
2016,10,13,01,06,3.10
2016,10,13,01,07,5.00
2016,10,13,01,08,2.90
2016,10,13,01,09,4.50
2016,10,13,01,10,4.20
2016,10,13,01,11,3.80
2016,10,13,01,12,3.90
2016,10,13,01,13,4.70
2016,10,13,01,14,4.40
2016,10,13,01,15,4.50
2016,10,13,01,16,1.50
2016,10,13,01,17,3.10
2016,10,13,01,18,0.80
2016,10,13,01,19,0.40
2016,10,13,01,20,0.90
2016,10,13,01,21,4.30
2016,10,13,01,22,1.30
2016,10,13,01,23,3.10
2016,10,13,01,24,3.10
2016,10,13,01,25,3.60
2016,10,13,01,26,3.90
2016,10,13,01,27,3.40
2016,10,13,01,28,4.40
2016,10,13,01,29,3.50
2016,10,13,01,30,2.80
2016,10,13,01,31,8.20
2016,10,13,01,32,6.00
2016,10,13,01,33,4.80
2016,10,13,01,34,6.80
2016,10,13,01,35,5.70
2016,10,13,01,36,4.30
2016,10,13,01,37,3.70
2016,10,13,01,38,3.10
2016,10,13,01,39,3.40
2016,10,13,01,40,4.00
2016,10,13,01,41,6.00
2016,10,13,01,42,4.30
2016,10,13,01,43,3.90
2016,10,13,01,44,2.30
2016,10,13,01,45,3.00
2016,10,13,01,46,4.00
2016,10,13,01,47,5.70
2016,10,13,01,48,5.50
2016,10,13,01,49,5.00
2016,10,13,01,50,5.80
2016,10,13,01,51,6.40
2016,10,13,01,52,7.40
2016,10,13,01,53,5.50
2016,10,13,01,54,5.50
2016,10,13,01,55,6.60
2016,10,13,01,56,2.70
2016,10,13,01,57,3.60
2016,10,13,01,58,4.20
2016,10,13,01,59,0.90
2016,10,13,02,00,1.60
2016,10,13,02,01,2.80
2016,10,13,02,02,3.50
2016,10,13,02,03,1.90
2016,10,13,02,04,2.10
2016,10,13,02,05,3.10
2016,10,13,02,06,3.00
2016,10,13,02,07,2.70
2016,10,13,02,08,2.90
2016,10,13,02,09,1.30
2016,10,13,02,10,4.00
2016,10,13,02,11,2.00
2016,10,13,02,12,3.50
2016,10,13,02,13,4.30
2016,10,13,02,14,4.70
2016,10,13,02,15,4.60
2016,10,13,02,16,3.30
2016,10,13,02,17,3.80
2016,10,13,02,18,4.80
2016,10,13,02,19,3.30
2016,10,13,02,20,3.50
2016,10,13,02,21,3.50
2016,10,13,02,22,2.70
2016,10,13,02,23,0.50
2016,10,13,02,24,6.40
2016,10,13,02,25,2.80
2016,10,13,02,26,1.60
2016,10,13,02,27,3.30
2016,10,13,02,28,2.20
2016,10,13,02,29,2.50
2016,10,13,02,30,2.20
2016,10,13,02,31,2.40
2016,10,13,02,32,5.60
2016,10,13,02,33,5.70
2016,10,13,02,34,9.10
2016,10,13,02,35,3.90
2016,10,13,02,36,4.70
2016,10,13,02,37,3.50
2016,10,13,02,38,1.90
2016,10,13,02,39,4.70
2016,10,13,02,40,3.10
2016,10,13,02,41,3.70
2016,10,13,02,42,5.30
2016,10,13,02,43,7.50
2016,10,13,02,44,5.10
2016,10,13,02,45,0.80
2016,10,13,02,46,3.90
2016,10,13,02,47,3.80
2016,10,13,02,48,4.90
2016,10,13,02,49,1.50
2016,10,13,02,50,1.40
2016,10,13,02,51,1.80
2016,10,13,02,52,3.90
2016,10,13,02,53,5.30
2016,10,13,02,54,4.90
2016,10,13,02,55,3.20
2016,10,13,02,56,5.30
2016,10,13,02,57,4.30
2016,10,13,02,58,5.50
2016,10,13,02,59,5.10
2016,10,13,03,00,6.90
2016,10,13,03,01,3.30
2016,10,13,03,02,2.80
2016,10,13,03,03,5.30
2016,10,13,03,04,5.20
2016,10,13,03,05,4.20
2016,10,13,03,06,2.70
2016,10,13,03,07,2.70
2016,10,13,03,08,4.70
2016,10,13,03,09,4.30
2016,10,13,03,10,5.50
2016,10,13,03,11,4.20
2016,10,13,03,12,2.50
2016,10,13,03,13,1.90
2016,10,13,03,14,2.20
2016,10,13,03,15,2.50
2016,10,13,03,16,1.40
2016,10,13,03,17,2.70
2016,10,13,03,18,2.80
2016,10,13,03,19,0.80
2016,10,13,03,20,1.90
2016,10,13,03,21,3.00
2016,10,13,03,22,2.50
2016,10,13,03,23,2.20
2016,10,13,03,24,3.90
2016,10,13,03,25,3.50
2016,10,13,03,26,2.50
2016,10,13,03,27,5.80
2016,10,13,03,28,4.40
2016,10,13,03,29,2.60
2016,10,13,03,30,3.50
2016,10,13,03,31,2.10
2016,10,13,03,32,3.50
2016,10,13,03,33,4.10
2016,10,13,03,34,4.50
2016,10,13,03,35,8.00
2016,10,13,03,36,5.90
2016,10,13,03,37,2.90
2016,10,13,03,38,2.50
2016,10,13,03,39,2.20
2016,10,13,03,40,3.10
2016,10,13,03,41,1.30
2016,10,13,03,42,1.00
2016,10,13,03,43,5.00
2016,10,13,03,44,3.50
2016,10,13,03,45,3.60
2016,10,13,03,46,2.50
2016,10,13,03,47,5.10
2016,10,13,03,48,0.80
2016,10,13,03,49,2.10
2016,10,13,03,50,4.20
2016,10,13,03,51,3.60
2016,10,13,03,52,3.70
2016,10,13,03,53,3.90
2016,10,13,03,54,1.90
2016,10,13,03,55,2.30
2016,10,13,03,56,2.30
2016,10,13,03,57,1.30
2016,10,13,03,58,1.20
2016,10,13,03,59,1.60
2016,10,13,04,00,0.70
2016,10,13,04,01,0.90
2016,10,13,04,02,0.70
2016,10,13,04,03,0.20
2016,10,13,04,04,0.00
2016,10,13,04,05,0.00
2016,10,13,04,06,0.10
2016,10,13,04,07,0.20
2016,10,13,04,08,0.90
2016,10,13,04,09,2.40
2016,10,13,04,10,0.40
2016,10,13,04,11,0.20
2016,10,13,04,12,0.10
2016,10,13,04,13,0.30
2016,10,13,04,14,0.40
2016,10,13,04,15,0.00
2016,10,13,04,16,0.30
2016,10,13,04,17,0.10
2016,10,13,04,18,1.10
2016,10,13,04,19,0.20
2016,10,13,04,20,0.00
2016,10,13,04,21,1.90
2016,10,13,04,22,0.80
2016,10,13,04,23,0.80
2016,10,13,04,24,0.40
2016,10,13,04,25,0.80
2016,10,13,04,26,1.80
2016,10,13,04,27,4.30
2016,10,13,04,28,2.70
2016,10,13,04,29,2.70
2016,10,13,04,30,3.40
2016,10,13,04,31,2.30
2016,10,13,04,32,1.40
2016,10,13,04,33,2.60
2016,10,13,04,34,3.50
2016,10,13,04,35,3.10
2016,10,13,04,36,2.60
2016,10,13,04,37,3.50
2016,10,13,04,38,2.60
2016,10,13,04,39,1.00
2016,10,13,04,40,5.00
2016,10,13,04,41,3.60
2016,10,13,04,42,2.40
2016,10,13,04,43,1.40
2016,10,13,04,44,2.70
2016,10,13,04,45,1.40
2016,10,13,04,46,2.70
2016,10,13,04,47,2.20
2016,10,13,04,48,2.20
2016,10,13,04,49,1.00
2016,10,13,04,50,1.60
2016,10,13,04,51,4.60
2016,10,13,04,52,2.00
2016,10,13,04,53,1.90
2016,10,13,04,54,0.00
2016,10,13,04,55,0.00
2016,10,13,04,56,0.00
2016,10,13,04,57,0.00
2016,10,13,04,58,0.20
2016,10,13,04,59,0.10
2016,10,13,05,00,0.00
2016,10,13,05,01,0.00
2016,10,13,05,02,0.00
2016,10,13,05,03,0.00
2016,10,13,05,04,0.00
2016,10,13,05,05,0.00
2016,10,13,05,06,0.00
2016,10,13,05,07,0.00
2016,10,13,05,08,0.00
2016,10,13,05,09,0.00
2016,10,13,05,10,0.00
2016,10,13,05,11,0.00
2016,10,13,05,12,0.00
2016,10,13,05,13,0.00
2016,10,13,05,14,0.00
2016,10,13,05,15,0.00
2016,10,13,05,16,0.00
2016,10,13,05,17,0.00
2016,10,13,05,18,0.10
2016,10,13,05,19,0.00
2016,10,13,05,20,0.20
2016,10,13,05,21,0.00
2016,10,13,05,22,0.10
2016,10,13,05,23,0.00
2016,10,13,05,24,0.00
2016,10,13,05,25,0.00
2016,10,13,05,26,0.00
2016,10,13,05,27,0.00
2016,10,13,05,28,0.00
2016,10,13,05,29,0.00
2016,10,13,05,30,0.00
2016,10,13,05,31,0.00
2016,10,13,05,32,0.00
2016,10,13,05,33,0.00
2016,10,13,05,34,0.00
2016,10,13,05,35,0.00
2016,10,13,05,36,0.00
2016,10,13,05,37,0.00
2016,10,13,05,38,0.00
2016,10,13,05,39,0.00
2016,10,13,05,40,0.00
2016,10,13,05,41,0.00
2016,10,13,05,42,0.00
2016,10,13,05,43,0.00
2016,10,13,05,44,0.00
2016,10,13,05,45,0.00
2016,10,13,05,46,0.00
2016,10,13,05,47,0.30
2016,10,13,05,48,0.60
2016,10,13,05,49,0.30
2016,10,13,05,50,0.00
2016,10,13,05,51,0.00
2016,10,13,05,52,0.00
2016,10,13,05,53,0.00
2016,10,13,05,54,0.00
2016,10,13,05,55,0.00
2016,10,13,05,56,0.00
2016,10,13,05,57,0.00
2016,10,13,05,58,0.00
2016,10,13,05,59,0.00
2016,10,13,06,00,0.00
2016,10,13,06,01,0.00
2016,10,13,06,02,0.00
2016,10,13,06,03,0.20
2016,10,13,06,04,1.10
2016,10,13,06,05,1.30
2016,10,13,06,06,0.20
2016,10,13,06,07,0.00
2016,10,13,06,08,0.60
2016,10,13,06,09,0.00
2016,10,13,06,10,0.00
2016,10,13,06,11,1.50
2016,10,13,06,12,0.80
2016,10,13,06,13,0.00
2016,10,13,06,14,0.20
2016,10,13,06,15,1.30
2016,10,13,06,16,1.30
2016,10,13,06,17,1.20
2016,10,13,06,18,1.10
2016,10,13,06,19,1.50
2016,10,13,06,20,1.10
2016,10,13,06,21,0.90
2016,10,13,06,22,1.30
2016,10,13,06,23,1.40
2016,10,13,06,24,2.00
2016,10,13,06,25,2.00
2016,10,13,06,26,2.60
2016,10,13,06,27,4.80
2016,10,13,06,28,3.80
2016,10,13,06,29,4.40
2016,10,13,06,30,3.50
2016,10,13,06,31,3.50
2016,10,13,06,32,5.00
2016,10,13,06,33,6.30
2016,10,13,06,34,6.20
2016,10,13,06,35,5.50
2016,10,13,06,36,6.10
2016,10,13,06,37,7.00
2016,10,13,06,38,7.30
2016,10,13,06,39,6.90
2016,10,13,06,40,7.50
2016,10,13,06,41,7.60
2016,10,13,06,42,4.60
2016,10,13,06,43,6.20
2016,10,13,06,44,5.10
2016,10,13,06,45,4.30
2016,10,13,06,46,2.60
2016,10,13,06,47,2.40
2016,10,13,06,48,1.30
2016,10,13,06,49,3.10
2016,10,13,06,50,5.30
2016,10,13,06,51,2.40
2016,10,13,06,52,0.60
2016,10,13,06,53,0.00
2016,10,13,06,54,1.20
2016,10,13,06,55,1.70
2016,10,13,06,56,0.20
2016,10,13,06,57,0.00
2016,10,13,06,58,0.00
2016,10,13,06,59,0.00
2016,10,13,07,00,0.00
2016,10,13,07,01,0.10
2016,10,13,07,02,1.00
2016,10,13,07,03,0.20
2016,10,13,07,04,0.30
2016,10,13,07,05,1.00
2016,10,13,07,06,2.00
2016,10,13,07,07,0.50
2016,10,13,07,08,0.00
2016,10,13,07,09,0.00
2016,10,13,07,10,0.10
2016,10,13,07,11,0.20
2016,10,13,07,12,0.00
2016,10,13,07,13,0.00
2016,10,13,07,14,0.00
2016,10,13,07,15,0.00
2016,10,13,07,16,0.30
2016,10,13,07,17,1.30
2016,10,13,07,18,0.90
2016,10,13,07,19,1.50
2016,10,13,07,20,0.80
2016,10,13,07,21,0.50
2016,10,13,07,22,0.00
2016,10,13,07,23,0.00
2016,10,13,07,24,0.00
2016,10,13,07,25,0.00
2016,10,13,07,26,1.00
2016,10,13,07,27,0.30
2016,10,13,07,28,0.60
2016,10,13,07,29,0.30
2016,10,13,07,30,0.10
2016,10,13,07,31,0.20
2016,10,13,07,32,0.00
2016,10,13,07,33,0.00
2016,10,13,07,34,0.20
2016,10,13,07,35,1.40
2016,10,13,07,36,2.50
2016,10,13,07,37,2.00
2016,10,13,07,38,2.40
2016,10,13,07,39,1.80
2016,10,13,07,40,1.90
2016,10,13,07,41,2.00
2016,10,13,07,42,2.10
2016,10,13,07,43,1.90
2016,10,13,07,44,2.40
2016,10,13,07,45,2.10
2016,10,13,07,46,3.00
2016,10,13,07,47,2.60
2016,10,13,07,48,3.50
2016,10,13,07,49,4.50
2016,10,13,07,50,1.80
2016,10,13,07,51,1.10
2016,10,13,07,52,2.60
2016,10,13,07,53,2.30
2016,10,13,07,54,2.80
2016,10,13,07,55,1.90
2016,10,13,07,56,0.40
2016,10,13,07,57,1.50
2016,10,13,07,58,2.40
2016,10,13,07,59,3.00
2016,10,13,08,00,2.30
2016,10,13,08,01,3.20
2016,10,13,08,02,3.10
2016,10,13,08,03,2.20
2016,10,13,08,04,3.10
2016,10,13,08,05,4.30
2016,10,13,08,06,2.70
2016,10,13,08,07,1.30
2016,10,13,08,08,1.00
2016,10,13,08,09,2.60
2016,10,13,08,10,2.70
2016,10,13,08,11,2.20
2016,10,13,08,12,4.10
2016,10,13,08,13,3.80
2016,10,13,08,14,1.50
2016,10,13,08,15,1.10
2016,10,13,08,16,1.50
2016,10,13,08,17,1.10
2016,10,13,08,18,1.70
2016,10,13,08,19,1.70
2016,10,13,08,20,1.70
2016,10,13,08,21,1.10
2016,10,13,08,22,2.40
2016,10,13,08,23,2.30
2016,10,13,08,24,1.90
2016,10,13,08,25,1.10
2016,10,13,08,26,2.60
2016,10,13,08,27,2.50
2016,10,13,08,28,1.30
2016,10,13,08,29,0.10
2016,10,13,08,30,0.10
2016,10,13,08,31,0.60
2016,10,13,08,32,2.90
2016,10,13,08,33,3.00
2016,10,13,08,34,2.40
2016,10,13,08,35,1.80
2016,10,13,08,36,0.30
2016,10,13,08,37,0.80
2016,10,13,08,38,2.30
2016,10,13,08,39,0.50
2016,10,13,08,40,1.80
2016,10,13,08,41,1.90
2016,10,13,08,42,3.30
2016,10,13,08,43,4.10
2016,10,13,08,44,3.40
2016,10,13,08,45,2.90
2016,10,13,08,46,3.60
2016,10,13,08,47,3.20
2016,10,13,08,48,3.50
2016,10,13,08,49,2.40
2016,10,13,08,50,2.90
2016,10,13,08,51,3.60
2016,10,13,08,52,1.50
2016,10,13,08,53,0.10
2016,10,13,08,54,0.00
2016,10,13,08,55,0.10
2016,10,13,08,56,0.00
2016,10,13,08,57,0.00
2016,10,13,08,58,0.00
2016,10,13,08,59,0.00
2016,10,13,09,00,0.60
2016,10,13,09,01,0.10
2016,10,13,09,02,0.00
2016,10,13,09,03,0.10
2016,10,13,09,04,0.00
2016,10,13,09,05,0.00
2016,10,13,09,06,0.00
2016,10,13,09,07,0.00
2016,10,13,09,08,0.00
2016,10,13,09,09,0.10
2016,10,13,09,10,0.00
2016,10,13,09,11,0.00
2016,10,13,09,12,0.00
2016,10,13,09,13,0.00
2016,10,13,09,14,0.00
2016,10,13,09,15,0.10
2016,10,13,09,16,0.30
2016,10,13,09,17,0.40
2016,10,13,09,18,0.20
2016,10,13,09,19,0.30
2016,10,13,09,20,0.60
2016,10,13,09,21,0.90
2016,10,13,09,22,0.10
2016,10,13,09,23,0.00
2016,10,13,09,24,0.40
2016,10,13,09,25,0.00
2016,10,13,09,26,0.00
2016,10,13,09,27,0.60
2016,10,13,09,28,0.20
2016,10,13,09,29,1.30
2016,10,13,09,30,2.30
2016,10,13,09,31,1.90
2016,10,13,09,32,2.10
2016,10,13,09,33,1.50
2016,10,13,09,34,0.60
2016,10,13,09,35,0.60
2016,10,13,09,36,0.90
2016,10,13,09,37,0.10
2016,10,13,09,38,0.00
2016,10,13,09,39,0.00
2016,10,13,09,40,0.00
2016,10,13,09,41,0.00
2016,10,13,09,42,0.00
2016,10,13,09,43,0.00
2016,10,13,09,44,0.90
2016,10,13,09,45,3.10
2016,10,13,09,46,3.10
2016,10,13,09,47,2.30
2016,10,13,09,48,1.10
2016,10,13,09,49,2.40
2016,10,13,09,50,2.10
2016,10,13,09,51,0.90
2016,10,13,09,52,0.20
2016,10,13,09,53,0.00
2016,10,13,09,54,0.00
2016,10,13,09,55,0.60
2016,10,13,09,56,2.60
2016,10,13,09,57,0.60
2016,10,13,09,58,1.50
2016,10,13,09,59,0.90
2016,10,13,10,00,2.50
2016,10,13,10,01,3.90
2016,10,13,10,02,2.10
2016,10,13,10,03,0.80
2016,10,13,10,04,3.40
2016,10,13,10,05,2.10
2016,10,13,10,06,3.10
2016,10,13,10,07,1.80
2016,10,13,10,08,0.30
2016,10,13,10,09,0.00
2016,10,13,10,10,0.00
2016,10,13,10,11,0.00
2016,10,13,10,12,0.00
2016,10,13,10,13,0.00
2016,10,13,10,14,0.10
2016,10,13,10,15,0.40
2016,10,13,10,16,0.40
2016,10,13,10,17,2.60
2016,10,13,10,18,3.00
2016,10,13,10,19,1.70
2016,10,13,10,20,3.90
2016,10,13,10,21,3.40
2016,10,13,10,22,3.50
2016,10,13,10,23,5.10
2016,10,13,10,24,7.80
2016,10,13,10,25,6.80
2016,10,13,10,26,7.20
2016,10,13,10,27,5.60
2016,10,13,10,28,7.10
2016,10,13,10,29,5.80
2016,10,13,10,30,3.90
2016,10,13,10,31,4.80
2016,10,13,10,32,5.10
2016,10,13,10,33,2.80
2016,10,13,10,34,5.60
2016,10,13,10,35,5.30
2016,10,13,10,36,5.90
2016,10,13,10,37,7.00
2016,10,13,10,38,5.90
2016,10,13,10,39,5.60
2016,10,13,10,40,4.10
2016,10,13,10,41,4.40
2016,10,13,10,42,3.50
2016,10,13,10,43,2.50
2016,10,13,10,44,2.20
2016,10,13,10,45,1.80
2016,10,13,10,46,4.10
2016,10,13,10,47,3.80
2016,10,13,10,48,3.50
2016,10,13,10,49,4.60
2016,10,13,10,50,6.00
2016,10,13,10,51,3.50
2016,10,13,10,52,4.30
2016,10,13,10,53,3.30
2016,10,13,10,54,8.10
2016,10,13,10,55,6.80
2016,10,13,10,56,6.80
2016,10,13,10,57,4.00
2016,10,13,10,58,7.00
2016,10,13,10,59,3.50
2016,10,13,11,00,2.30
2016,10,13,11,01,5.40
2016,10,13,11,02,7.10
2016,10,13,11,03,6.10
2016,10,13,11,04,3.00
2016,10,13,11,05,5.50
2016,10,13,11,06,3.90
2016,10,13,11,07,4.10
2016,10,13,11,08,2.50
2016,10,13,11,09,3.10
2016,10,13,11,10,4.20
2016,10,13,11,11,2.60
2016,10,13,11,12,2.70
2016,10,13,11,13,4.10
2016,10,13,11,14,3.30
2016,10,13,11,15,2.80
2016,10,13,11,16,5.60
2016,10,13,11,17,3.30
2016,10,13,11,18,4.70
2016,10,13,11,19,3.90
2016,10,13,11,20,1.80
2016,10,13,11,21,6.40
2016,10,13,11,22,3.70
2016,10,13,11,23,5.10
2016,10,13,11,24,3.50
2016,10,13,11,25,3.90
2016,10,13,11,26,3.90
2016,10,13,11,27,4.70
2016,10,13,11,28,4.80
2016,10,13,11,29,2.30
2016,10,13,11,30,3.00
2016,10,13,11,31,4.50
2016,10,13,11,32,4.00
2016,10,13,11,33,5.60
2016,10,13,11,34,4.20
2016,10,13,11,35,2.60
2016,10,13,11,36,4.30
2016,10,13,11,37,9.10
2016,10,13,11,38,7.00
2016,10,13,11,39,5.60
2016,10,13,11,40,5.10
2016,10,13,11,41,4.60
2016,10,13,11,42,3.90
2016,10,13,11,43,3.60
2016,10,13,11,44,3.10
2016,10,13,11,45,6.50
2016,10,13,11,46,3.90
2016,10,13,11,47,2.50
2016,10,13,11,48,1.20
2016,10,13,11,49,2.80
2016,10,13,11,50,1.50
2016,10,13,11,51,5.30
2016,10,13,11,52,5.10
2016,10,13,11,53,6.00
2016,10,13,11,54,7.20
2016,10,13,11,55,4.70
2016,10,13,11,56,4.40
2016,10,13,11,57,4.30
2016,10,13,11,58,1.30
2016,10,13,11,59,3.50
2016,10,13,12,00,1.70
2016,10,13,12,01,1.80
2016,10,13,12,02,1.20
2016,10,13,12,03,2.50
2016,10,13,12,04,1.10
2016,10,13,12,05,0.20
2016,10,13,12,06,0.00
2016,10,13,12,07,0.00
2016,10,13,12,08,0.00
2016,10,13,12,09,0.00
2016,10,13,12,10,0.00
2016,10,13,12,11,0.00
2016,10,13,12,12,0.10
2016,10,13,12,13,0.00
2016,10,13,12,14,0.20
2016,10,13,12,15,0.40
2016,10,13,12,16,0.70
2016,10,13,12,17,0.00
2016,10,13,12,18,0.00
2016,10,13,12,19,0.30
2016,10,13,12,20,0.00
2016,10,13,12,21,0.00
2016,10,13,12,22,0.00
2016,10,13,12,23,0.00
2016,10,13,12,24,0.50
2016,10,13,12,25,0.50
2016,10,13,12,26,0.30
2016,10,13,12,27,1.30
2016,10,13,12,28,3.20
2016,10,13,12,29,5.10
2016,10,13,12,30,5.60
2016,10,13,12,31,4.10
2016,10,13,12,32,4.20
2016,10,13,12,33,6.80
2016,10,13,12,34,4.20
2016,10,13,12,35,2.80
2016,10,13,12,36,0.90
2016,10,13,12,37,1.10
2016,10,13,12,38,1.80
2016,10,13,12,39,3.40
2016,10,13,12,40,2.70
2016,10,13,12,41,0.60
2016,10,13,12,42,1.80
2016,10,13,12,43,3.20
2016,10,13,12,44,3.20
2016,10,13,12,45,6.00
2016,10,13,12,46,5.00
2016,10,13,12,47,4.50
2016,10,13,12,48,2.90
2016,10,13,12,49,1.10
2016,10,13,12,50,0.40
2016,10,13,12,51,2.30
2016,10,13,12,52,1.50
2016,10,13,12,53,2.40
2016,10,13,12,54,4.20
2016,10,13,12,55,2.90
2016,10,13,12,56,1.80
2016,10,13,12,57,3.40
2016,10,13,12,58,4.50
2016,10,13,12,59,3.30
2016,10,13,13,00,0.90
2016,10,13,13,01,3.90
2016,10,13,13,02,3.50
2016,10,13,13,03,4.40
2016,10,13,13,04,5.30
2016,10,13,13,05,3.70
2016,10,13,13,06,7.20
2016,10,13,13,07,3.50
2016,10,13,13,08,6.60
2016,10,13,13,09,6.00
2016,10,13,13,10,7.90
2016,10,13,13,11,4.60
2016,10,13,13,12,5.60
2016,10,13,13,13,4.60
2016,10,13,13,14,5.80
2016,10,13,13,15,3.00
2016,10,13,13,16,0.60
2016,10,13,13,17,1.30
2016,10,13,13,18,4.00
2016,10,13,13,19,1.30
2016,10,13,13,20,1.80
2016,10,13,13,21,0.60
2016,10,13,13,22,0.50
2016,10,13,13,23,0.10
2016,10,13,13,24,0.00
2016,10,13,13,25,0.10
2016,10,13,13,26,0.30
2016,10,13,13,27,1.50
2016,10,13,13,28,3.00
2016,10,13,13,29,6.50
2016,10,13,13,30,5.90
2016,10,13,13,31,3.50
2016,10,13,13,32,2.70
2016,10,13,13,33,1.90
2016,10,13,13,34,4.30
2016,10,13,13,35,4.50
2016,10,13,13,36,6.70
2016,10,13,13,37,7.60
2016,10,13,13,38,6.20
2016,10,13,13,39,6.40
2016,10,13,13,40,7.80
2016,10,13,13,41,5.70
2016,10,13,13,42,7.10
2016,10,13,13,43,7.20
2016,10,13,13,44,7.50
2016,10,13,13,45,8.80
2016,10,13,13,46,9.00
2016,10,13,13,47,7.40
2016,10,13,13,48,7.50
2016,10,13,13,49,10.60
2016,10,13,13,50,11.30
2016,10,13,13,51,11.30
2016,10,13,13,52,11.40
2016,10,13,13,53,8.20
2016,10,13,13,54,8.50
2016,10,13,13,55,12.40
2016,10,13,13,56,10.90
2016,10,13,13,57,10.90
2016,10,13,13,58,11.10
2016,10,13,13,59,8.90
2016,10,13,14,00,9.40
2016,10,13,14,01,6.40
2016,10,13,14,02,9.30
2016,10,13,14,03,9.30
2016,10,13,14,04,7.30
2016,10,13,14,05,6.80
2016,10,13,14,06,7.50
2016,10,13,14,07,5.20
2016,10,13,14,08,9.30
2016,10,13,14,09,10.50
2016,10,13,14,10,10.70
2016,10,13,14,11,8.00
2016,10,13,14,12,8.80
2016,10,13,14,13,9.10
2016,10,13,14,14,5.50
2016,10,13,14,15,7.10
2016,10,13,14,16,7.80
2016,10,13,14,17,8.60
2016,10,13,14,18,6.90
2016,10,13,14,19,11.50
2016,10,13,14,20,9.00
2016,10,13,14,21,5.30
2016,10,13,14,22,10.60
2016,10,13,14,23,8.90
2016,10,13,14,24,5.70
2016,10,13,14,25,7.70
2016,10,13,14,26,7.60
2016,10,13,14,27,5.30
2016,10,13,14,28,6.40
2016,10,13,14,29,6.60
2016,10,13,14,30,6.80
2016,10,13,14,31,6.90
2016,10,13,14,32,5.60
2016,10,13,14,33,6.50
2016,10,13,14,34,10.30
2016,10,13,14,35,13.50
2016,10,13,14,36,12.30
2016,10,13,14,37,15.10
2016,10,13,14,38,13.40
2016,10,13,14,39,8.50
2016,10,13,14,40,10.30
2016,10,13,14,41,13.70
2016,10,13,14,42,14.90
2016,10,13,14,43,12.60
2016,10,13,14,44,10.00
2016,10,13,14,45,13.70
2016,10,13,14,46,15.10
2016,10,13,14,47,9.50
2016,10,13,14,48,8.40
2016,10,13,14,49,13.00
2016,10,13,14,50,10.40
2016,10,13,14,51,11.60
2016,10,13,14,52,8.10
2016,10,13,14,53,12.30
2016,10,13,14,54,16.30
2016,10,13,14,55,12.50
2016,10,13,14,56,13.10
2016,10,13,14,57,13.50
2016,10,13,14,58,13.60
2016,10,13,14,59,13.90
2016,10,13,15,00,15.70
2016,10,13,15,01,18.20
2016,10,13,15,02,15.00
2016,10,13,15,03,13.60
2016,10,13,15,04,13.60
2016,10,13,15,05,20.60
2016,10,13,15,06,18.40
2016,10,13,15,07,10.10
2016,10,13,15,08,11.50
2016,10,13,15,09,9.60
2016,10,13,15,10,10.30
2016,10,13,15,11,15.30
2016,10,13,15,12,9.50
2016,10,13,15,13,9.20
2016,10,13,15,14,9.30
2016,10,13,15,15,12.20
2016,10,13,15,16,11.90
2016,10,13,15,17,11.80
2016,10,13,15,18,13.00
2016,10,13,15,19,12.40
2016,10,13,15,20,6.80
2016,10,13,15,21,4.90
2016,10,13,15,22,1.90
2016,10,13,15,23,0.20
2016,10,13,15,24,2.90
2016,10,13,15,25,2.70
2016,10,13,15,26,3.90
2016,10,13,15,27,0.70
2016,10,13,15,28,2.50
2016,10,13,15,29,1.40
2016,10,13,15,30,0.00
2016,10,13,15,31,0.00
2016,10,13,15,32,0.00
2016,10,13,15,33,1.90
2016,10,13,15,34,5.30
2016,10,13,15,35,2.10
2016,10,13,15,36,1.60
2016,10,13,15,37,1.60
2016,10,13,15,38,1.60
2016,10,13,15,39,1.60
2016,10,13,15,40,1.60
2016,10,13,15,41,1.60
2016,10,13,15,42,4.40
2016,10,13,15,43,5.00
2016,10,13,15,44,3.20
2016,10,13,15,45,1.90
2016,10,13,15,46,3.00
2016,10,13,15,47,2.70
2016,10,13,15,48,4.70
2016,10,13,15,49,3.10
2016,10,13,15,50,1.10
2016,10,13,15,51,3.70
2016,10,13,15,52,3.80
2016,10,13,15,53,4.50
2016,10,13,15,54,6.30
2016,10,13,15,55,4.90
2016,10,13,15,56,4.90
2016,10,13,15,57,7.50
2016,10,13,15,58,3.50
2016,10,13,15,59,8.00
2016,10,13,16,00,3.30
2016,10,13,16,01,3.60
2016,10,13,16,02,5.10
2016,10,13,16,03,3.70
2016,10,13,16,04,6.70
2016,10,13,16,05,5.70
2016,10,13,16,06,7.80
2016,10,13,16,07,5.60
2016,10,13,16,08,8.40
2016,10,13,16,09,7.70
2016,10,13,16,10,1.10
2016,10,13,16,11,0.00
2016,10,13,16,12,2.20
2016,10,13,16,13,3.40
2016,10,13,16,14,1.50
2016,10,13,16,15,0.10
2016,10,13,16,16,0.20
2016,10,13,16,17,0.40
2016,10,13,16,18,0.20
2016,10,13,16,19,0.20
2016,10,13,16,20,0.50
2016,10,13,16,21,0.00
2016,10,13,16,22,5.20
2016,10,13,16,23,2.50
2016,10,13,16,24,3.00
2016,10,13,16,25,2.70
2016,10,13,16,26,2.30
2016,10,13,16,27,3.80
2016,10,13,16,28,3.90
2016,10,13,16,29,1.10
2016,10,13,16,30,0.40
2016,10,13,16,31,1.90
2016,10,13,16,32,3.10
2016,10,13,16,33,2.00
2016,10,13,16,34,2.70
2016,10,13,16,35,1.10
2016,10,13,16,36,0.40
2016,10,13,16,37,2.70
2016,10,13,16,38,2.40
2016,10,13,16,39,3.10
2016,10,13,16,40,2.90
2016,10,13,16,41,0.90
2016,10,13,16,42,3.70
2016,10,13,16,43,4.80
2016,10,13,16,44,8.80
2016,10,13,16,45,5.10
2016,10,13,16,46,6.50
2016,10,13,16,47,4.90
2016,10,13,16,48,3.70
2016,10,13,16,49,0.80
2016,10,13,16,50,3.10
2016,10,13,16,51,6.40
2016,10,13,16,52,8.10
2016,10,13,16,53,6.30
2016,10,13,16,54,2.10
2016,10,13,16,55,1.20
2016,10,13,16,56,1.20
2016,10,13,16,57,3.50
2016,10,13,16,58,0.20
2016,10,13,16,59,1.10
2016,10,13,17,00,2.60
2016,10,13,17,01,0.40
2016,10,13,17,02,2.10
2016,10,13,17,03,1.00
2016,10,13,17,04,0.20
2016,10,13,17,05,0.20
2016,10,13,17,06,0.50
2016,10,13,17,07,0.70
2016,10,13,17,08,0.30
2016,10,13,17,09,2.40
2016,10,13,17,10,3.50
2016,10,13,17,11,9.40
2016,10,13,17,12,2.50
2016,10,13,17,13,5.40
2016,10,13,17,14,12.20
2016,10,13,17,15,9.20
2016,10,13,17,16,3.70
2016,10,13,17,17,4.10
2016,10,13,17,18,13.10
2016,10,13,17,19,11.50
2016,10,13,17,20,3.60
2016,10,13,17,21,5.10
2016,10,13,17,22,9.50
2016,10,13,17,23,8.20
2016,10,13,17,24,6.10
2016,10,13,17,25,4.00
2016,10,13,17,26,8.70
2016,10,13,17,27,4.80
2016,10,13,17,28,4.10
2016,10,13,17,29,7.60
2016,10,13,17,30,9.00
2016,10,13,17,31,10.80
2016,10,13,17,32,11.40
2016,10,13,17,33,8.90
2016,10,13,17,34,8.90
2016,10,13,17,35,10.10
2016,10,13,17,36,11.50
2016,10,13,17,37,22.00
2016,10,13,17,38,18.40
2016,10,13,17,39,14.60
2016,10,13,17,40,20.20
2016,10,13,17,41,26.10
2016,10,13,17,42,17.50
2016,10,13,17,43,16.30
2016,10,13,17,44,15.50
2016,10,13,17,45,19.30
2016,10,13,17,46,21.00
2016,10,13,17,47,20.90
2016,10,13,17,48,12.20
2016,10,13,17,49,14.90
2016,10,13,17,50,8.90
2016,10,13,17,51,9.70
2016,10,13,17,52,8.50
2016,10,13,17,53,9.30
2016,10,13,17,54,10.90
2016,10,13,17,55,12.80
2016,10,13,17,56,10.30
2016,10,13,17,57,4.00
2016,10,13,17,58,7.10
2016,10,13,17,59,11.50
2016,10,13,18,00,11.30
2016,10,13,18,01,8.90
2016,10,13,18,02,9.30
2016,10,13,18,03,15.40